When you browse on this site, cookies collect data to enhance your experience and personalize the content and advertising you see.
Visit our Privacy Policy to learn more. By continuing to use the site, you agree to this use of cookies and data.
  • en France
  • Liste des pays
  • À 7 jours
  • Température de l'eau
  • Carte satellitaire
  • Carte météo
  • Widgets météo
  • user-avatar
    Se connecter

    Météo par heure à Nantes

    Ce jour, 22 Mai, Mercredi

    Heure Température Précipitation Vent Pression Humidité
    00:00 +12°C° 0 mm 2 m/s 763 mmHg 92%
    01:00 +10°C° 0 mm 2 m/s 763 mmHg 93%
    02:00 +10°C° 0 mm 2 m/s 763 mmHg 93%
    03:00 +11°C° 0 mm 1 m/s 763 mmHg 93%
    04:00 +12°C° 0 mm 2 m/s 763 mmHg 93%
    05:00 +12°C° 0 mm 2 m/s 763 mmHg 92%
    06:00 +13°C° 0 mm 2 m/s 763 mmHg 91%
    07:00 +14°C° 0 mm 2 m/s 764 mmHg 86%
    08:00 +16°C° 0 mm 2 m/s 764 mmHg 80%
    09:00 +18°C° 0 mm 2 m/s 764 mmHg 75%
    10:00 +20°C° 0 mm 1 m/s 764 mmHg 70%
    11:00 +22°C° 0 mm 1 m/s 764 mmHg 65%
    12:00 +23°C° 0 mm 1 m/s 764 mmHg 60%
    13:00 +23°C° 0.1 mm 1 m/s 763 mmHg 59%
    14:00 +23°C° 0.1 mm 1 m/s 763 mmHg 59%
    15:00 +23°C° 0.1 mm 1 m/s 763 mmHg 59%
    16:00 +23°C° 0.1 mm 1 m/s 763 mmHg 64%
    17:00 +22°C° 0.1 mm 1 m/s 763 mmHg 69%
    18:00 +22°C° 0.1 mm 1 m/s 763 mmHg 74%
    19:00 +20°C° 0 mm 1 m/s 763 mmHg 79%
    20:00 +18°C° 0 mm 1 m/s 763 mmHg 83%
    21:00 +15°C° 0 mm 1 m/s 763 mmHg 88%
    22:00 +14°C° 0 mm 1 m/s 763 mmHg 88%
    23:00 +14°C° 0 mm 1 m/s 763 mmHg 89%

    Demain, 23 Mai, Jeudi

    Heure Température Précipitation Vent Pression Humidité
    00:00 +14°C° 0 mm 1 m/s 763 mmHg 89%
    01:00 +13°C° 0 mm 1 m/s 763 mmHg 88%
    02:00 +13°C° 0 mm 1 m/s 763 mmHg 88%
    03:00 +13°C° 0 mm 1 m/s 762 mmHg 88%
    04:00 +14°C° 0 mm 1 m/s 762 mmHg 86%
    05:00 +14°C° 0 mm 1 m/s 762 mmHg 85%
    06:00 +15°C° 0 mm 1 m/s 762 mmHg 84%
    07:00 +16°C° 0 mm 1 m/s 762 mmHg 79%
    08:00 +19°C° 0 mm 1 m/s 763 mmHg 74%
    09:00 +21°C° 0 mm 1 m/s 763 mmHg 68%
    10:00 +22°C° 0.1 mm 1 m/s 763 mmHg 65%
    11:00 +23°C° 0.1 mm 2 m/s 762 mmHg 63%
    12:00 +23°C° 0.1 mm 2 m/s 762 mmHg 60%
    13:00 +23°C° 0.3 mm 2 m/s 762 mmHg 61%
    14:00 +23°C° 0.3 mm 2 m/s 762 mmHg 62%
    15:00 +23°C° 0.3 mm 2 m/s 762 mmHg 63%
    16:00 +21°C° 0.6 mm 2 m/s 762 mmHg 69%
    17:00 +20°C° 0.6 mm 2 m/s 762 mmHg 76%
    18:00 +19°C° 0.6 mm 2 m/s 762 mmHg 82%
    19:00 +18°C° 0 mm 2 m/s 762 mmHg 84%
    20:00 +17°C° 0 mm 2 m/s 762 mmHg 85%
    21:00 +16°C° 0 mm 2 m/s 762 mmHg 87%
    22:00 +15°C° 0 mm 2 m/s 762 mmHg 88%
    23:00 +15°C° 0 mm 2 m/s 762 mmHg 89%

    Après-demain, 24 Mai, Vendredi

    Heure Température Précipitation Vent Pression Humidité
    00:00 +15°C° 0 mm 2 m/s 762 mmHg 90%
    01:00 +14°C° 0 mm 2 m/s 762 mmHg 90%
    02:00 +13°C° 0 mm 2 m/s 762 mmHg 91%
    03:00 +11°C° 0 mm 3 m/s 762 mmHg 91%
    04:00 +11°C° 0 mm 3 m/s 762 mmHg 90%
    05:00 +11°C° 0 mm 3 m/s 763 mmHg 89%
    06:00 +12°C° 0 mm 3 m/s 763 mmHg 88%
    07:00 +13°C° 0 mm 3 m/s 763 mmHg 83%
    08:00 +16°C° 0 mm 3 m/s 763 mmHg 77%
    09:00 +18°C° 0 mm 4 m/s 763 mmHg 72%
    10:00 +19°C° 0 mm 4 m/s 763 mmHg 67%
    11:00 +20°C° 0 mm 4 m/s 763 mmHg 62%
    12:00 +21°C° 0 mm 4 m/s 763 mmHg 57%
    13:00 +21°C° 0 mm 4 m/s 763 mmHg 59%
    14:00 +21°C° 0 mm 4 m/s 763 mmHg 60%
    15:00 +22°C° 0 mm 4 m/s 762 mmHg 61%
    16:00 +21°C° 0 mm 4 m/s 762 mmHg 66%
    17:00 +20°C° 0 mm 4 m/s 762 mmHg 70%
    18:00 +19°C° 0 mm 4 m/s 762 mmHg 74%
    19:00 +17°C° 0 mm 4 m/s 763 mmHg 78%
    20:00 +14°C° 0 mm 4 m/s 763 mmHg 82%
    21:00 +12°C° 0 mm 3 m/s 764 mmHg 85%
    22:00 +11°C° 0 mm 3 m/s 764 mmHg 88%
    23:00 +10°C° 0 mm 3 m/s 764 mmHg 91%

    25 Mai, Samedi

    Heure Température Précipitation Vent Pression Humidité
    00:00 +10°C° 0 mm 3 m/s 764 mmHg 95%
    01:00 +10°C° 0 mm 2 m/s 764 mmHg 95%
    02:00 +10°C° 0 mm 2 m/s 764 mmHg 96%
    03:00 +10°C° 0 mm 2 m/s 764 mmHg 97%
    04:00 +12°C° 0 mm 2 m/s 764 mmHg 96%
    05:00 +11°C° 0 mm 3 m/s 764 mmHg 95%
    06:00 +12°C° 0 mm 3 m/s 764 mmHg 94%
    07:00 +14°C° 0 mm 3 m/s 764 mmHg 90%
    08:00 +16°C° 0 mm 3 m/s 764 mmHg 85%
    09:00 +18°C° 0 mm 3 m/s 765 mmHg 81%
    10:00 +19°C° 0.2 mm 3 m/s 765 mmHg 77%
    11:00 +20°C° 0.2 mm 3 m/s 765 mmHg 73%
    12:00 +21°C° 0.2 mm 3 m/s 764 mmHg 70%
    13:00 +21°C° 0.4 mm 4 m/s 764 mmHg 69%
    14:00 +22°C° 0.4 mm 4 m/s 764 mmHg 68%
    15:00 +22°C° 0.4 mm 5 m/s 764 mmHg 68%
    16:00 +21°C° 0 mm 4 m/s 764 mmHg 70%
    17:00 +21°C° 0 mm 4 m/s 764 mmHg 72%
    18:00 +20°C° 0 mm 4 m/s 764 mmHg 75%
    19:00 +18°C° 0 mm 3 m/s 764 mmHg 80%
    20:00 +16°C° 0 mm 3 m/s 765 mmHg 85%
    21:00 +14°C° 0 mm 2 m/s 765 mmHg 91%
    22:00 +14°C° 0 mm 2 m/s 765 mmHg 91%
    23:00 +13°C° 0 mm 2 m/s 765 mmHg 92%

    26 Mai, Dimanche

    Heure Température Précipitation Vent Pression Humidité
    00:00 +13°C° 0 mm 1 m/s 765 mmHg 93%
    01:00 +12°C° 0 mm 1 m/s 765 mmHg 93%
    02:00 +12°C° 0 mm 1 m/s 765 mmHg 94%
    03:00 +12°C° 0 mm 1 m/s 765 mmHg 95%
    04:00 +12°C° 0 mm 1 m/s 765 mmHg 95%
    05:00 +13°C° 0 mm 1 m/s 764 mmHg 94%
    06:00 +14°C° 0 mm 1 m/s 764 mmHg 94%
    07:00 +14°C° 0 mm 2 m/s 765 mmHg 91%
    08:00 +15°C° 0 mm 2 m/s 765 mmHg 88%
    09:00 +16°C° 0 mm 2 m/s 765 mmHg 86%
    10:00 +17°C° 0 mm 2 m/s 765 mmHg 84%
    11:00 +17°C° 0 mm 2 m/s 765 mmHg 82%
    12:00 +18°C° 0 mm 2 m/s 764 mmHg 79%
    13:00 +19°C° 0 mm 2 m/s 764 mmHg 79%
    14:00 +19°C° 0 mm 2 m/s 764 mmHg 78%
    15:00 +20°C° 0 mm 2 m/s 764 mmHg 77%
    16:00 +19°C° 0 mm 2 m/s 764 mmHg 80%
    17:00 +19°C° 0 mm 3 m/s 763 mmHg 82%
    18:00 +19°C° 0 mm 3 m/s 763 mmHg 85%
    19:00 +18°C° 0 mm 3 m/s 763 mmHg 88%
    20:00 +16°C° 0 mm 3 m/s 764 mmHg 92%
    21:00 +15°C° 0 mm 2 m/s 764 mmHg 95%
    22:00 +15°C° 0 mm 2 m/s 764 mmHg 95%
    23:00 +15°C° 0 mm 1 m/s 764 mmHg 95%

    27 Mai, Lundi

    Heure Température Précipitation Vent Pression Humidité
    00:00 +16°C° 0 mm 1 m/s 764 mmHg 95%
    01:00 +15°C° 0 mm 1 m/s 764 mmHg 95%
    02:00 +14°C° 0 mm 1 m/s 763 mmHg 96%
    03:00 +14°C° 0 mm 1 m/s 763 mmHg 96%
    04:00 +14°C° 0 mm 1 m/s 763 mmHg 95%
    05:00 +14°C° 0 mm 1 m/s 763 mmHg 94%
    06:00 +14°C° 0 mm 1 m/s 763 mmHg 93%
    07:00 +16°C° 0 mm 1 m/s 763 mmHg 88%
    08:00 +19°C° 0 mm 1 m/s 763 mmHg 83%
    09:00 +20°C° 0 mm 1 m/s 763 mmHg 78%
    10:00 +19°C° 0.1 mm 2 m/s 763 mmHg 81%
    11:00 +18°C° 0.1 mm 3 m/s 762 mmHg 85%
    12:00 +17°C° 0.1 mm 3 m/s 762 mmHg 88%
    13:00 +18°C° 0 mm 3 m/s 762 mmHg 86%
    14:00 +19°C° 0 mm 3 m/s 762 mmHg 83%
    15:00 +19°C° 0 mm 3 m/s 762 mmHg 80%
    16:00 +19°C° 0.1 mm 4 m/s 761 mmHg 82%
    17:00 +19°C° 0.1 mm 4 m/s 761 mmHg 83%
    18:00 +18°C° 0.1 mm 4 m/s 761 mmHg 84%
    19:00 +17°C° 0 mm 4 m/s 761 mmHg 88%
    20:00 +16°C° 0 mm 3 m/s 762 mmHg 91%
    21:00 +13°C° 0 mm 3 m/s 762 mmHg 95%
    22:00 +13°C° 0 mm 3 m/s 762 mmHg 93%
    23:00 +13°C° 0 mm 3 m/s 762 mmHg 91%
    Voir plus